Belmar-Farmingdale, NJ

4:47 AM EST on November 18, 2019 (GMT -0500)
Allaire

Weather History for KBLM - September, 2019

Change the Weather History Date:

Tuesday, September 17, 2019

  Actual Average Record
Temperature  
Mean Temperature 68 °F -  
Max Temperature 75 °F 72 °F 84 °F (2005)
Min Temperature 57 °F 57 °F 46 °F (2007)
Cooling Degree Days 3    
Growing Degree Days 18 (Base 50)    
Moisture  
Dew Point 51 °F    
Average Humidity 58    
Maximum Humidity 96    
Minimum Humidity 29    
Precipitation  
Precipitation 0.00 in - - ()
Sea Level Pressure  
Sea Level Pressure 30.12 in    
Wind  
Wind Speed 6 mph ()    
Max Wind Speed 13 mph    
Max Gust Speed 16 mph    
Visibility 10.0 miles    
Events      
Averages and records for this station are not official NWS values.
T = Trace of Precipitation, MM = Missing Value Source: Averaged Metar Reports

Daily Weather History Graph

Daily Weather History Graph

Search for Another Location

Airport or City:

Astronomy

Sep. 17, 2019 Rise Set
Actual Time 6:39 AM EDT 7:02 PM EDT
Civil Twilight 6:11 AM EDT 7:29 PM EDT
Nautical Twilight 5:39 AM EDT 8:01 PM EDT
Astronomical Twilight 5:07 AM EDT 8:34 PM EDT
Moon 9:03 PM EDT (9/17) 9:41 AM EDT (9/17)
Length of Visible Light 13h 17m
Length of Day
12h 23m
Waning Gibbous, 89% of the Moon is Illuminated
Sep 17
Waning Gibbous
Sep 21
Last Quarter
Sep 28
New
Oct 5
First Quarter
Oct 13
Full

Hourly Weather History & Observations

Time (EDT) Temp. Dew Point Humidity Pressure Visibility Wind Dir Wind Speed Gust Speed Precip Events Conditions
12:56 AM 68.0 °F 66.9 °F 96% 30.06 in 10.0 mi ENE 4.6 mph - N/A   Overcast
1:56 AM 69.1 °F 61.0 °F 75% 30.07 in 10.0 mi ENE 5.8 mph - N/A   Overcast
2:15 AM 69.8 °F 60.8 °F 73% 30.07 in 10.0 mi NE 8.1 mph - N/A   Overcast
2:36 AM 69.8 °F 57.2 °F 64% 30.07 in 10.0 mi NE 8.1 mph - N/A   Overcast
2:56 AM 69.1 °F 54.0 °F 58% 30.08 in 10.0 mi NE 5.8 mph - N/A   Overcast
4:56 AM 66.9 °F 55.9 °F 68% 30.08 in 10.0 mi NE 10.4 mph - N/A   Overcast
5:56 AM 64.0 °F 54.0 °F 70% 30.10 in 10.0 mi NNE 5.8 mph - N/A   Scattered Clouds
6:56 AM 63.0 °F 53.1 °F 70% 30.13 in 10.0 mi NNE 5.8 mph - N/A   Clear
7:56 AM 64.9 °F 54.0 °F 68% 30.14 in 10.0 mi NNE 5.8 mph - N/A   Clear
8:56 AM 66.9 °F 52.0 °F 59% 30.15 in 10.0 mi NNE 12.7 mph - N/A   Clear
9:56 AM 68.0 °F 50.0 °F 52% 30.16 in 10.0 mi ENE 11.5 mph - N/A   Clear
10:56 AM 70.0 °F 46.0 °F 42% 30.17 in 10.0 mi NE 10.4 mph - N/A   Clear
11:56 AM 71.1 °F 46.9 °F 42% 30.16 in 10.0 mi NE 11.5 mph - N/A   Clear
12:56 PM 72.0 °F 44.1 °F 37% 30.15 in 10.0 mi NNE 12.7 mph - N/A   Clear
1:56 PM 73.0 °F 46.0 °F 38% 30.14 in 10.0 mi NE 3.5 mph - N/A   Clear
2:56 PM 75.9 °F 45.0 °F 33% 30.12 in 10.0 mi NNW 12.7 mph 16.1 mph N/A   Clear
3:56 PM 75.9 °F 43.0 °F 31% 30.11 in 10.0 mi North 8.1 mph - N/A   Clear
4:56 PM 75.0 °F 41.0 °F 29% 30.10 in 10.0 mi NNW 10.4 mph - N/A   Clear
5:56 PM 73.9 °F 41.0 °F 30% 30.10 in 10.0 mi North 9.2 mph - N/A   Clear
7:56 PM 64.9 °F 52.0 °F 63% 30.13 in 10.0 mi Calm Calm - N/A   Clear
8:56 PM 63.0 °F 52.0 °F 67% 30.15 in 10.0 mi East 3.5 mph - N/A   Clear
9:56 PM 61.0 °F 52.0 °F 72% 30.15 in 10.0 mi East 3.5 mph - N/A   Clear
10:56 PM 62.1 °F 54.0 °F 75% 30.15 in 10.0 mi East 3.5 mph - N/A   Clear
11:56 PM 57.9 °F 53.1 °F 84% 30.16 in 10.0 mi Calm Calm - N/A   Clear